{"data":{"norad_id":66976,"intl_designator":"2025-288T","name":"STARLINK-35772","alt_names":[],"object_type":"PAYLOAD","status":"ACTIVE","operator":null,"country":"US","launch_date":"2025-12-08","launch_site_code":"AFETR","launch_vehicle":null,"mission":null,"orbit_class":"UNKNOWN","rcs_meters":null,"size_class":null,"mass_kg":null,"dimensions":null,"purposes":["comms"],"wikipedia_slug":null,"has_3d_model":false,"image_url":null,"decayed_at":null,"tle_current":{"epoch":"2026-05-25T03:57:54.958752Z","epoch_age_seconds":60434,"freshness":"FRESH","line1":"1 66976U 25288T   26145.16521943  .00015408  00000+0  56793-3 0  9998","line2":"2 66976  42.9989 311.5830 0001652 272.0451  88.0211 15.27598410 26980","mean_motion":15.2759841,"eccentricity":0.0001652,"inclination_deg":42.9989,"raan_deg":311.583,"arg_perigee_deg":272.0451,"mean_anomaly_deg":88.0211,"bstar":0.00056793,"rev_number":2698,"period_min":94.265612648811,"perigee_km":481.86051159401,"apogee_km":484.12742926664,"semimajor_km":6861.1309704303,"source":"CELESTRAK","updated_at":"2026-05-25T13:38:21.425084Z"}}}